Stündliche Wetter Kyslychuvata

Heute, 11 Mai, Dienstag

Zeit Temperatur Niederschläge Wind Luftdruck Luftfeuchtigkeit
00:00 +9°C° 0.3 mm 7 m/S 755 mmHg 69%
01:00 +9°C° 0.3 mm 8 m/S 755 mmHg 75%
02:00 +9°C° 0 mm 8 m/S 755 mmHg 82%
03:00 +9°C° 0 mm 8 m/S 754 mmHg 82%
04:00 +9°C° 0 mm 7 m/S 754 mmHg 82%
05:00 +9°C° 0 mm 7 m/S 754 mmHg 83%
06:00 +10°C° 0 mm 7 m/S 754 mmHg 80%
07:00 +11°C° 0 mm 8 m/S 753 mmHg 78%
08:00 +11°C° 0 mm 8 m/S 753 mmHg 76%
09:00 +12°C° 0 mm 8 m/S 753 mmHg 75%
10:00 +13°C° 0 mm 8 m/S 753 mmHg 73%
11:00 +15°C° 0 mm 8 m/S 753 mmHg 72%
12:00 +14°C° 0.1 mm 7 m/S 753 mmHg 72%
13:00 +13°C° 0.1 mm 6 m/S 753 mmHg 71%
14:00 +11°C° 0.1 mm 6 m/S 754 mmHg 71%
15:00 +13°C° 0 mm 6 m/S 754 mmHg 66%
16:00 +13°C° 0 mm 6 m/S 754 mmHg 60%
17:00 +14°C° 0 mm 7 m/S 754 mmHg 55%
18:00 +11°C° 0 mm 6 m/S 754 mmHg 61%
19:00 +9°C° 0 mm 5 m/S 754 mmHg 67%
20:00 +7°C° 0 mm 4 m/S 754 mmHg 73%
21:00 +7°C° 0 mm 4 m/S 754 mmHg 76%
22:00 +7°C° 0 mm 4 m/S 754 mmHg 78%
23:00 +7°C° 0 mm 4 m/S 753 mmHg 81%

Morgen, 12 Mai, Mittwoch

Zeit Temperatur Niederschläge Wind Luftdruck Luftfeuchtigkeit
00:00 +7°C° 0.1 mm 4 m/S 753 mmHg 83%
01:00 +7°C° 0.1 mm 4 m/S 753 mmHg 84%
02:00 +7°C° 0.1 mm 4 m/S 753 mmHg 85%
03:00 +7°C° 0.2 mm 4 m/S 753 mmHg 86%
04:00 +6°C° 0.2 mm 4 m/S 753 mmHg 87%
05:00 +6°C° 0.2 mm 4 m/S 753 mmHg 88%
06:00 +7°C° 0.3 mm 4 m/S 753 mmHg 87%
07:00 +8°C° 0.3 mm 3 m/S 753 mmHg 85%
08:00 +8°C° 0.3 mm 3 m/S 753 mmHg 84%
09:00 +8°C° 0.2 mm 3 m/S 753 mmHg 81%
10:00 +9°C° 0.2 mm 3 m/S 753 mmHg 78%
11:00 +9°C° 0.2 mm 2 m/S 753 mmHg 75%
12:00 +10°C° 0.2 mm 2 m/S 753 mmHg 71%
13:00 +12°C° 0.2 mm 2 m/S 752 mmHg 66%
14:00 +13°C° 0.2 mm 2 m/S 752 mmHg 62%
15:00 +13°C° 0.3 mm 2 m/S 752 mmHg 62%
16:00 +14°C° 0.3 mm 2 m/S 752 mmHg 62%
17:00 +13°C° 0.3 mm 3 m/S 752 mmHg 62%
18:00 +12°C° 0 mm 2 m/S 752 mmHg 67%
19:00 +10°C° 0 mm 2 m/S 752 mmHg 73%
20:00 +9°C° 0 mm 2 m/S 752 mmHg 78%
21:00 +8°C° 0 mm 2 m/S 753 mmHg 79%
22:00 +8°C° 0 mm 2 m/S 753 mmHg 80%
23:00 +8°C° 0 mm 2 m/S 753 mmHg 81%

übermorgen, 13 Mai, Donnerstag

Zeit Temperatur Niederschläge Wind Luftdruck Luftfeuchtigkeit
00:00 +8°C° 0 mm 2 m/S 753 mmHg 84%
01:00 +8°C° 0 mm 2 m/S 753 mmHg 86%
02:00 +7°C° 0 mm 2 m/S 753 mmHg 88%
03:00 +7°C° 0 mm 2 m/S 753 mmHg 89%
04:00 +7°C° 0 mm 2 m/S 753 mmHg 89%
05:00 +8°C° 0 mm 2 m/S 753 mmHg 89%
06:00 +10°C° 0 mm 2 m/S 753 mmHg 82%
07:00 +12°C° 0 mm 3 m/S 753 mmHg 76%
08:00 +14°C° 0 mm 3 m/S 753 mmHg 69%
09:00 +16°C° 0 mm 3 m/S 753 mmHg 65%
10:00 +18°C° 0 mm 3 m/S 753 mmHg 60%
11:00 +19°C° 0 mm 3 m/S 753 mmHg 56%
12:00 +20°C° 0 mm 3 m/S 753 mmHg 54%
13:00 +21°C° 0 mm 3 m/S 752 mmHg 52%
14:00 +22°C° 0 mm 3 m/S 752 mmHg 50%
15:00 +22°C° 0 mm 3 m/S 752 mmHg 52%
16:00 +23°C° 0 mm 2 m/S 752 mmHg 54%
17:00 +23°C° 0 mm 2 m/S 751 mmHg 57%
18:00 +20°C° 0 mm 2 m/S 751 mmHg 63%
19:00 +18°C° 0 mm 2 m/S 751 mmHg 68%
20:00 +17°C° 0 mm 3 m/S 751 mmHg 74%
21:00 +16°C° 0 mm 3 m/S 751 mmHg 78%
22:00 +16°C° 0 mm 3 m/S 751 mmHg 81%
23:00 +14°C° 0 mm 3 m/S 751 mmHg 85%

14 Mai, Freitag

Zeit Temperatur Niederschläge Wind Luftdruck Luftfeuchtigkeit
00:00 +14°C° 0 mm 3 m/S 751 mmHg 87%
01:00 +14°C° 0 mm 3 m/S 750 mmHg 90%
02:00 +14°C° 0 mm 3 m/S 750 mmHg 92%
03:00 +14°C° 0 mm 3 m/S 750 mmHg 93%
04:00 +15°C° 0 mm 2 m/S 750 mmHg 94%
05:00 +15°C° 0 mm 2 m/S 750 mmHg 94%
06:00 +17°C° 0 mm 2 m/S 750 mmHg 88%
07:00 +18°C° 0 mm 2 m/S 750 mmHg 81%
08:00 +20°C° 0 mm 2 m/S 750 mmHg 75%
09:00 +22°C° 0 mm 3 m/S 750 mmHg 67%
10:00 +24°C° 0 mm 3 m/S 750 mmHg 59%
11:00 +25°C° 0 mm 3 m/S 750 mmHg 51%
12:00 +26°C° 0 mm 3 m/S 750 mmHg 48%
13:00 +26°C° 0 mm 3 m/S 750 mmHg 45%
14:00 +27°C° 0 mm 4 m/S 750 mmHg 43%
15:00 +27°C° 0 mm 3 m/S 750 mmHg 45%
16:00 +26°C° 0 mm 3 m/S 750 mmHg 47%
17:00 +26°C° 0 mm 3 m/S 750 mmHg 49%
18:00 +24°C° 0 mm 3 m/S 750 mmHg 54%
19:00 +21°C° 0 mm 3 m/S 750 mmHg 60%
20:00 +19°C° 0 mm 3 m/S 750 mmHg 65%
21:00 +18°C° 0 mm 3 m/S 750 mmHg 70%
22:00 +17°C° 0 mm 3 m/S 750 mmHg 75%
23:00 +16°C° 0 mm 3 m/S 751 mmHg 80%

15 Mai, Samstag

Zeit Temperatur Niederschläge Wind Luftdruck Luftfeuchtigkeit
00:00 +14°C° 0 mm 3 m/S 751 mmHg 84%
01:00 +14°C° 0 mm 3 m/S 751 mmHg 87%
02:00 +13°C° 0 mm 3 m/S 751 mmHg 90%
03:00 +14°C° 0 mm 2 m/S 751 mmHg 90%
04:00 +14°C° 0 mm 2 m/S 752 mmHg 89%
05:00 +15°C° 0 mm 2 m/S 752 mmHg 88%
06:00 +16°C° 0 mm 2 m/S 752 mmHg 81%
07:00 +18°C° 0 mm 2 m/S 752 mmHg 75%
08:00 +20°C° 0 mm 3 m/S 752 mmHg 68%
09:00 +21°C° 0 mm 3 m/S 752 mmHg 62%
10:00 +22°C° 0 mm 3 m/S 753 mmHg 56%
11:00 +25°C° 0 mm 3 m/S 753 mmHg 51%
12:00 +25°C° 0 mm 4 m/S 752 mmHg 49%
13:00 +25°C° 0 mm 4 m/S 752 mmHg 46%
14:00 +26°C° 0 mm 4 m/S 752 mmHg 44%
15:00 +25°C° 0 mm 4 m/S 752 mmHg 46%
16:00 +25°C° 0 mm 3 m/S 752 mmHg 48%
17:00 +25°C° 0 mm 3 m/S 752 mmHg 51%
18:00 +23°C° 0 mm 2 m/S 752 mmHg 55%
19:00 +21°C° 0 mm 2 m/S 752 mmHg 59%
20:00 +19°C° 0 mm 2 m/S 752 mmHg 64%
21:00 +20°C° 0 mm 1 m/S 752 mmHg 66%
22:00 +19°C° 0 mm 1 m/S 752 mmHg 69%
23:00 +16°C° 0 mm 0 m/S 752 mmHg 72%

16 Mai, Sonntag

Zeit Temperatur Niederschläge Wind Luftdruck Luftfeuchtigkeit
00:00 +18°C° 0 mm 1 m/S 752 mmHg 72%
01:00 +18°C° 0 mm 1 m/S 752 mmHg 73%
02:00 +16°C° 0 mm 1 m/S 752 mmHg 73%
03:00 +16°C° 0 mm 2 m/S 752 mmHg 75%
04:00 +16°C° 0 mm 2 m/S 751 mmHg 76%
05:00 +16°C° 0 mm 3 m/S 751 mmHg 78%
06:00 +18°C° 0 mm 3 m/S 751 mmHg 71%
07:00 +20°C° 0 mm 4 m/S 751 mmHg 65%
08:00 +22°C° 0 mm 4 m/S 751 mmHg 58%
09:00 +23°C° 0 mm 4 m/S 751 mmHg 54%
10:00 +26°C° 0 mm 5 m/S 750 mmHg 49%
11:00 +27°C° 0 mm 5 m/S 750 mmHg 45%
12:00 +27°C° 0 mm 5 m/S 750 mmHg 42%
13:00 +28°C° 0 mm 5 m/S 749 mmHg 39%
14:00 +29°C° 0 mm 5 m/S 749 mmHg 35%
15:00 +28°C° 0 mm 5 m/S 748 mmHg 39%
16:00 +28°C° 0 mm 4 m/S 748 mmHg 43%
17:00 +28°C° 0 mm 4 m/S 747 mmHg 48%
18:00 +26°C° 0 mm 4 m/S 747 mmHg 55%
19:00 +23°C° 0 mm 4 m/S 747 mmHg 63%
20:00 +21°C° 0 mm 4 m/S 747 mmHg 71%
21:00 +21°C° 0 mm 5 m/S 747 mmHg 74%
22:00 +21°C° 0 mm 5 m/S 746 mmHg 77%
23:00 +20°C° 0 mm 5 m/S 746 mmHg 80%
Mehr zeigen

Wir brauchen deine Erlaubnis

Meteoprog und unser Service Anbieter werden persönliche Daten aufbewahren, so wie Cookies, Geräte Bezeichnung oder ähnliche Technologien von deinem Gerät und Prozess, so wie Persönliche Daten Inhalte und Werbungen, genauso wie social Media und den Verkehr zu analysieren.

  • Aufbewahrung und/oder Zugang zu deiner Geräte Informationen.

    Cookies, Geräte Bezeichnung oder andere Informationen, können aufbewahrt oder Zugang zu deinem Gerät erhalten, für den Grund, der oben angegeben wird.

  • Personalisierte Werbung und Inhalte, Messungen, Einblick in das Publikum und Produkt Entwicklung.

    Werbungen und Inhalte können personalisiert werden, basierend auf ein Profil. Mehr Daten können besser personalisierte Werbungen und Inhalte hinzufügen. Werbung und Inhalte können gezeigt und gemessen werden. Einblicke über das Publikum, welche die Werbung gesehen haben und den Inhalt, können abgeleitet werden. So wie Daten können genutzt werden, um es zu verbessern oder die Benutzer Erfahrung zu verbessern das System und die Software.

Wenn du “Ich stimme zu” klickst, erlaubst du uns, die Cookies zu benutzen die Geräte Bezeichnung, den Web oder ähnliche Technologien zu benutzen. Deine Settings, können in deinem Gerät bei deinem Browser geändert werden.

Für den bestimmten Zweck, berechtigten Interessen beruhen darauf, mehr als auf den Inhalt. Du kannst mehr darüber in unseren Privaten und Cookie Politik lesen.